Weather History for KORD - March, 2012

Change the Weather History Date:

Friday, March 23, 2012

  Actual Average Record
Temperature  
Mean Temperature 59 °F 40 °F  
Max Temperature 63 °F 50 °F 80 °F (1907)
Min Temperature 55 °F 31 °F 9 °F (1940)
Degree Days  
Heating Degree Days 6 25  
Month to date heating degree days 275 657  
Since 1 July heating degree days 4248 5391  
Cooling Degree Days 0 0  
Month to date cooling degree days 39 0  
Year to date cooling degree days 39 0  
Growing Degree Days 8 (Base 50)    
Moisture  
Dew Point 57 °F    
Average Humidity 85    
Maximum Humidity 97    
Minimum Humidity 72    
Precipitation  
Precipitation 1.25 in 0.08 in 1.25 in (2012)
Month to date precipitation 2.10 1.80  
Year to date precipitation 5.60 5.32  
Snow  
Snow 0.00 in 0.20 in 7.00 in (1897)
Month to date snowfall 0.3 4.7  
Since 1 July snowfall 19.8 34.5  
Snow Depth 0.00 in    
Sea Level Pressure  
Sea Level Pressure 29.89 in    
Wind  
Wind Speed 6 mph (ENE)    
Max Wind Speed 20 mph    
Max Gust Speed 24 mph    
Visibility 6 miles    
Events Fog , Rain    
T = Trace of Precipitation, MM = Missing Value Source: NWS Daily Summary

Daily Weather History Graph

Daily Weather History Graph

Search for Another Location

Airport or City:

Trip Planner

Search our weather history database for the weather conditions in past years. The results will help you decide how hot, cold, wet, or windy it might be!

Date:

Astronomy

Mar. 23, 2012 Rise Set
Actual Time 6:49 AM CDT 7:07 PM CDT
Civil Twilight 6:21 AM CDT 7:35 PM CDT
Nautical Twilight 5:48 AM CDT 8:08 PM CDT
Astronomical Twilight 5:14 AM CDT 8:42 PM CDT
Moon 6:55 AM CDT (3/23) 8:32 PM CDT (3/23)
Length of Visible Light 13h 14m
Length of Day
12h 18m
New Moon, 1% of the Moon is Illuminated
Mar 23
New Moon
Mar 30
First Quarter
Apr 6
Full
Apr 13
Last Quarter
Apr 21
New

Hourly Weather History & Observations

Time (CDT) Temp. Dew Point Humidity Pressure Visibility Wind Dir Wind Speed Gust Speed Precip Events Conditions
12:51 AM 62.1 °F 57.0 °F 84% 30.01 in 5.0 mi ENE 3.5 mph - 0.00 in Rain Light Rain
1:51 AM 60.1 °F 55.9 °F 86% 30.00 in 5.0 mi ENE 6.9 mph - 0.01 in Rain Light Rain
2:51 AM 60.1 °F 55.0 °F 83% 29.99 in 6.0 mi East 4.6 mph - 0.00 in   Haze
3:51 AM 59.0 °F 54.0 °F 83% 29.98 in 7.0 mi East 5.8 mph - N/A   Overcast
4:51 AM 59.0 °F 54.0 °F 83% 29.97 in 7.0 mi East 4.6 mph - 0.00 in   Overcast
5:51 AM 61.0 °F 55.9 °F 83% 29.97 in 7.0 mi SE 5.8 mph - N/A   Overcast
6:51 AM 61.0 °F 57.0 °F 87% 29.96 in 6.0 mi SE 5.8 mph - 0.00 in   Overcast
7:51 AM 62.1 °F 57.9 °F 86% 29.96 in 7.0 mi Variable 5.8 mph - N/A   Mostly Cloudy
8:51 AM 60.1 °F 57.0 °F 90% 29.96 in 5.0 mi ENE 5.8 mph - 0.01 in Rain Rain
8:55 AM 60.8 °F 57.2 °F 88% 29.97 in 3.0 mi East 4.6 mph - 0.01 in Rain Light Rain
9:02 AM 60.8 °F 57.2 °F 88% 29.97 in 1.5 mi Calm Calm - 0.08 in Rain Heavy Rain
9:47 AM 57.2 °F 55.4 °F 94% 29.96 in 1.5 mi ENE 5.8 mph - 0.53 in Rain Rain
9:51 AM 57.9 °F 55.9 °F 93% 29.95 in 1.5 mi ENE 6.9 mph - 0.54 in Rain Rain
10:14 AM 59.0 °F 57.2 °F 94% 29.95 in 2.0 mi ENE 5.8 mph - 0.06 in Rain Light Rain
10:29 AM 60.8 °F 57.2 °F 88% 29.95 in 2.5 mi ENE 6.9 mph - 0.06 in   Overcast
10:51 AM 61.0 °F 59.0 °F 93% 29.94 in 4.0 mi ENE 5.8 mph - 0.06 in   Overcast
11:51 AM 62.1 °F 60.1 °F 93% 29.92 in 1.5 mi East 6.9 mph - 0.06 in Rain Rain
12:11 PM 62.6 °F 60.8 °F 94% 29.91 in 2.5 mi NE 6.9 mph - 0.07 in Rain Rain
12:20 PM 62.6 °F 60.8 °F 94% 29.91 in 4.0 mi NE 8.1 mph - 0.08 in Rain Light Rain
12:46 PM 62.6 °F 60.8 °F 94% 29.90 in 5.0 mi ENE 6.9 mph - 0.09 in   Overcast
12:51 PM 62.1 °F 60.1 °F 93% 29.91 in 5.0 mi ENE 5.8 mph - 0.09 in   Overcast
1:47 PM 62.6 °F 60.8 °F 94% 29.88 in 3.0 mi Variable 3.5 mph - 0.05 in Rain Heavy Rain
1:51 PM 62.1 °F 60.1 °F 93% 29.88 in 3.0 mi East 3.5 mph - 0.08 in Rain Heavy Rain
2:08 PM 60.8 °F 59.0 °F 94% 29.87 in 2.5 mi NNE 4.6 mph - 0.15 in Rain Heavy Rain
2:24 PM 60.8 °F 59.0 °F 94% 29.87 in 3.0 mi NNE 4.6 mph - 0.26 in Rain Rain
2:29 PM 60.8 °F 59.0 °F 94% 29.87 in 2.0 mi NE 3.5 mph - 0.27 in Rain Rain
2:51 PM 61.0 °F 59.0 °F 93% 29.86 in 2.0 mi NE 5.8 mph - 0.35 in Rain Heavy Rain
3:14 PM 60.8 °F 59.0 °F 94% 29.85 in 3.0 mi North 5.8 mph - 0.04 in Rain Light Rain
3:21 PM 60.8 °F 59.0 °F 94% 29.84 in 5.0 mi North 5.8 mph - 0.05 in Rain Light Rain
3:51 PM 62.1 °F 60.1 °F 93% 29.83 in 5.0 mi NE 8.1 mph - 0.05 in   Mostly Cloudy
4:51 PM 62.1 °F 57.9 °F 86% 29.80 in 10.0 mi NNE 6.9 mph - 0.00 in   Overcast
5:51 PM 62.1 °F 57.9 °F 86% 29.82 in 10.0 mi NE 5.8 mph - N/A   Mostly Cloudy
6:20 PM 62.6 °F 57.2 °F 82% 29.83 in 10.0 mi East 4.6 mph - N/A   Overcast
6:41 PM 60.8 °F 57.2 °F 88% 29.84 in 10.0 mi ENE 4.6 mph - N/A   Mostly Cloudy
6:51 PM 60.8 °F 57.2 °F 88% 29.84 in 10.0 mi ENE 5.8 mph - N/A   Mostly Cloudy
7:09 PM 60.8 °F 57.2 °F 88% 29.84 in 8.0 mi East 5.8 mph - N/A   Overcast
7:51 PM 60.1 °F 57.9 °F 93% 29.85 in 5.0 mi Calm Calm - N/A   Mostly Cloudy
8:02 PM 57.2 °F 55.4 °F 94% 29.86 in 5.0 mi SSW 17.3 mph 23.0 mph N/A   Mostly Cloudy
8:22 PM 57.2 °F 50.0 °F 77% 29.86 in 10.0 mi South 9.2 mph - N/A   Overcast
8:38 PM 57.2 °F 50.0 °F 77% 29.86 in 10.0 mi Variable 3.5 mph - N/A   Mostly Cloudy
8:51 PM 57.9 °F 50.0 °F 75% 29.85 in 10.0 mi SSW 4.6 mph - N/A   Mostly Cloudy
9:51 PM 57.0 °F 48.9 °F 74% 29.80 in 10.0 mi NNW 3.5 mph - N/A   Mostly Cloudy
10:51 PM 55.9 °F 50.0 °F 80% 29.80 in 10.0 mi North 6.9 mph - N/A   Mostly Cloudy
11:44 PM 55.4 °F 53.6 °F 94% 29.79 in 8.0 mi North 8.1 mph - N/A   Mostly Cloudy
11:51 PM 55.0 °F 54.0 °F 96% 29.79 in 8.0 mi North 6.9 mph - N/A   Mostly Cloudy
11:58 PM 55.4 °F 53.6 °F 94% 29.80 in 0.2 mi North 6.9 mph - N/A Fog Fog